Location: Drocourt
(49.0571°N, 1.7669°E)
Time: 14:11:59
(UTC+00:00)

Vanguard 2 Rocket - Pass Details

Date: 19 April 2024
Orbit: 556 x 3304 km, 32.9° (Epoch: 22 May)

Event Time Altitude Azimuth Distance (km) Brightness Sun altitude
Rises 20:30:59 0° 214° (SW) 6,128 11.1 -15.0°
Reaches altitude 10° 20:35:15 10° 206° (SSW) 5,451 10.7 -15.6°
Maximum altitude 20:49:47 33° 150° (SSE) 4,487 9.9 -17.3°
Drops below altitude 10° 21:06:05 10° 96° (E) 6,137 10.7 -19.2°
Sets 21:11:14 0° 88° (E) 6,970 11.0 -19.8°
